Weather reports worldwide

Advertisment
Stonyhurst, United Kingdom (99060): temperature & dewpoint: 16.02.2019 01:00:00 - 22.02.2019 01:00:00 (GMT)Stonyhurst, United Kingdom (99060): precipitation: 16.02.2019 01:00:00 - 22.02.2019 01:00:00 (GMT)
Date & Time tt [°C] td [°C] rr [mm]
22.02.2019 01:00:00 8,2 6,9 0,0
22.02.2019 00:00:00 8,5 6,6 0,0
21.02.2019 23:00:00 8,4 6,6 0,0
21.02.2019 22:00:00 8,6 7,3 0,0
21.02.2019 21:00:00 8,0 7,5 0,0
21.02.2019 20:00:00 8,0 7,3 0,0
21.02.2019 19:00:00 9,1 8,0 0,0
21.02.2019 18:00:00 10,6 8,5 0,0
21.02.2019 17:00:00 12,6 9,3 0,0
21.02.2019 16:00:00 13,7 9,0 0,0
21.02.2019 15:00:00 13,9 9,6 0,0
21.02.2019 14:00:00 13,5 9,8 0,0
21.02.2019 13:00:00 12,9 10,6 0,0
21.02.2019 12:00:00 11,6 10,1 0,0
21.02.2019 11:00:00 11,1 9,9 0,0
21.02.2019 10:00:00 10,7 9,9 0,0
21.02.2019 09:00:00 10,3 9,8 0,0
21.02.2019 08:00:00 9,9 9,4 0,2
21.02.2019 07:00:00 9,7 9,3 0,2
21.02.2019 06:00:00 9,6 9,3 0,8
21.02.2019 05:00:00 9,5 9,0 0,8
21.02.2019 04:00:00 9,6 8,8 0,4
21.02.2019 03:00:00 9,4 8,4 0,4
21.02.2019 02:00:00 9,8 8,5 0,0
21.02.2019 01:00:00 9,9 8,4 0,0
21.02.2019 00:00:00 10,0 7,9 0,0
20.02.2019 23:00:00 10,0 7,9 0,0
20.02.2019 22:00:00 10,0 7,8 0,0
20.02.2019 21:00:00 10,0 7,9 0,0
20.02.2019 20:00:00 10,0 7,8 0,0
20.02.2019 19:00:00 9,9 7,8 0,0
20.02.2019 18:00:00 9,5 7,6 0,0
20.02.2019 17:00:00 9,5 7,5 0,0
20.02.2019 16:00:00 9,3 7,6 0,2
20.02.2019 15:00:00 - - -
20.02.2019 14:00:00 - - -
20.02.2019 13:00:00 - - 0,2
20.02.2019 12:00:00 10,3 6,9 0,0
20.02.2019 11:00:00 9,5 6,8 0,0
20.02.2019 10:00:00 8,9 6,6 0,0
20.02.2019 09:00:00 8,6 6,6 0,0
20.02.2019 08:00:00 8,2 6,6 0,0
20.02.2019 07:00:00 7,8 6,3 0,0
20.02.2019 06:00:00 7,8 6,4 0,0
20.02.2019 05:00:00 7,5 6,3 0,0
20.02.2019 04:00:00 7,6 6,2 0,0
20.02.2019 03:00:00 7,3 6,3 0,0
20.02.2019 02:00:00 7,1 5,9 0,0
20.02.2019 01:00:00 6,9 5,8 0,6
20.02.2019 00:00:00 6,9 5,6 0,0
19.02.2019 23:00:00 6,7 5,7 0,4
19.02.2019 22:00:00 6,6 5,6 0,6
19.02.2019 21:00:00 6,5 5,5 0,6
19.02.2019 20:00:00 6,8 5,1 0,2
19.02.2019 19:00:00 7,4 4,2 0,0
19.02.2019 18:00:00 7,7 3,5 0,0
19.02.2019 17:00:00 7,7 4,3 0,0
19.02.2019 16:00:00 7,4 5,1 0,0
19.02.2019 15:00:00 6,8 5,0 0,0
19.02.2019 14:00:00 7,3 3,9 0,0
19.02.2019 13:00:00 7,7 3,6 0,0
19.02.2019 12:00:00 7,6 3,6 0,0
19.02.2019 11:00:00 7,3 3,4 0,0
19.02.2019 10:00:00 6,8 4,7 0,0
19.02.2019 09:00:00 6,2 5,3 0,2
19.02.2019 08:00:00 6,2 5,4 0,2
19.02.2019 07:00:00 6,4 5,6 0,0
19.02.2019 06:00:00 6,7 6,0 0,6
19.02.2019 05:00:00 6,9 6,1 0,0
19.02.2019 04:00:00 6,9 6,3 0,2
19.02.2019 03:00:00 6,9 6,3 0,8
19.02.2019 02:00:00 6,9 6,1 0,2
19.02.2019 01:00:00 7,1 6,0 0,0
19.02.2019 00:00:00 7,3 5,5 0,0
18.02.2019 23:00:00 7,5 5,2 0,0
18.02.2019 22:00:00 7,6 5,2 0,0
18.02.2019 21:00:00 7,6 4,4 0,0
18.02.2019 20:00:00 7,6 3,9 0,0
18.02.2019 19:00:00 7,6 4,2 0,0
18.02.2019 18:00:00 7,6 4,1 0,0
18.02.2019 17:00:00 7,8 3,7 0,0
18.02.2019 16:00:00 7,8 3,4 0,0
18.02.2019 15:00:00 8,2 3,5 0,0
18.02.2019 14:00:00 9,5 2,3 0,0
18.02.2019 13:00:00 8,8 3,0 0,0
18.02.2019 12:00:00 8,4 5,1 0,0
18.02.2019 11:00:00 8,2 5,8 0,0
18.02.2019 10:00:00 6,6 5,6 1,0
18.02.2019 09:00:00 7,5 4,9 0,0
18.02.2019 08:00:00 7,2 5,0 0,0
18.02.2019 07:00:00 7,1 4,8 0,0
18.02.2019 06:00:00 6,9 4,8 0,0
18.02.2019 05:00:00 6,6 4,9 0,0
18.02.2019 04:00:00 6,5 4,7 0,0
18.02.2019 03:00:00 7,2 4,6 0,0
18.02.2019 02:00:00 7,3 4,6 0,0
18.02.2019 01:00:00 8,0 4,8 0,0
18.02.2019 00:00:00 8,0 4,3 0,0
17.02.2019 23:00:00 7,5 3,8 0,0
17.02.2019 22:00:00 8,4 3,6 0,0
17.02.2019 21:00:00 8,0 3,1 0,0
17.02.2019 20:00:00 8,2 3,2 0,0
17.02.2019 19:00:00 8,5 3,6 0,0
17.02.2019 18:00:00 9,4 2,8 0,0
17.02.2019 17:00:00 10,4 4,5 0,0
17.02.2019 16:00:00 11,5 5,2 0,0
17.02.2019 15:00:00 11,5 7,3 0,0
17.02.2019 14:00:00 11,2 6,8 0,0
17.02.2019 13:00:00 10,8 6,3 0,0
17.02.2019 12:00:00 10,5 5,8 0,0
17.02.2019 11:00:00 - - 0,0
17.02.2019 10:00:00 9,8 4,7 0,0
17.02.2019 09:00:00 9,7 4,4 0,0
17.02.2019 08:00:00 9,3 5,1 0,0
17.02.2019 07:00:00 8,9 5,5 0,0
17.02.2019 06:00:00 9,0 6,3 0,0
17.02.2019 05:00:00 8,6 6,4 0,0
17.02.2019 04:00:00 8,7 6,3 0,0
17.02.2019 03:00:00 9,1 6,6 0,0
17.02.2019 02:00:00 9,2 6,7 0,0
17.02.2019 01:00:00 9,7 7,3 0,0
17.02.2019 00:00:00 10,6 8,1 0,0
16.02.2019 23:00:00 11,2 9,1 0,0
16.02.2019 22:00:00 11,3 9,0 0,0
16.02.2019 21:00:00 11,3 8,9 0,0
16.02.2019 20:00:00 11,2 8,5 0,0
16.02.2019 19:00:00 11,0 7,8 0,0
16.02.2019 18:00:00 11,0 6,8 0,0
16.02.2019 17:00:00 11,3 6,0 0,0
16.02.2019 16:00:00 11,8 5,1 0,0
16.02.2019 15:00:00 11,8 4,5 0,0
16.02.2019 14:00:00 11,8 4,8 0,0
16.02.2019 13:00:00 11,4 4,9 0,0
16.02.2019 12:00:00 10,4 5,1 0,0
16.02.2019 11:00:00 10,5 5,8 0,0
16.02.2019 10:00:00 9,1 5,6 0,0
16.02.2019 09:00:00 8,2 5,5 0,0
16.02.2019 08:00:00 7,9 5,4 0,0
16.02.2019 07:00:00 8,2 5,5 0,0
16.02.2019 06:00:00 8,3 5,6 0,0
16.02.2019 05:00:00 8,5 5,8 0,0
16.02.2019 04:00:00 8,8 6,3 0,0
16.02.2019 03:00:00 9,2 6,4 0,0
16.02.2019 02:00:00 9,9 6,4 0,0
16.02.2019 01:00:00 9,8 6,0 0,0

tt = temperature
td = dewpoint
rr = precipitation

Next stations